Regional Weather Roundup
Issued by NWS Green Bay, WI

Home | Current Version | Previous Version | Text Only | Print | Product List | Glossary Off
Versions: 1 2 3 4 5 6 7 8 9 10 11 12 13 14 15 16 17 18 19 20 21 22 23 24 25 26 27 28 29 30 31 32 33 34 35 36 37 38 39 40 41 42 43 44 45 46 47 48 49 50

000
ASUS43 KGRB 241111
RWRGRB

NORTH-CENTRAL AND NORTHEAST WISCONSIN REGIONAL WEATHER ROUNDUP
NATIONAL WEATHER SERVICE GREEN BAY WI
600 AM CDT THU AUG 24 2017

WIZ005-009-010>012-018-019-241200-
NORTH CENTRAL WISCONSIN

CITY           SKY/WX    TMP DP  RH WIND       PRES   REMARKS
IRONWOOD       NOT AVBL
MANITOWISH WTR FOG       36  36 100 CALM      30.16R VSB 1/4
ARBOR VITAE    CLEAR     42  40  95 CALM      30.15S
EAGLE RIVER    FOG       38  38 100 CALM      30.15S VSB 3/4
LAND O LAKES   CLEAR     35  35 100 CALM      30.18R
RHINELANDER    CLEAR     40  39  97 CALM      30.16R
PHILLIPS       CLEAR     43  43 100 CALM      30.15R
ANTIGO         PTCLDY    46  44  92 NE3       30.15S
TOMAHAWK         N/A     41  40  95 CALM      30.16S
MERRILL        MOCLDY    45  45 100 CALM      30.16R
$$

WIZ013-073-241200-
NORTHEAST WISCONSIN

CITY           SKY/WX    TMP DP  RH WIND       PRES   REMARKS
IRON MOUNTAIN  CLEAR     41  38  89 NW5       30.13R
MARINETTE      NOT AVBL
OCONTO         CLOUDY    50  44  79 CALM      30.13R
$$

WIZ017-030-035>037-045-241200-
CENTRAL WISCONSIN

CITY           SKY/WX    TMP DP  RH WIND       PRES   REMARKS
MEDFORD        CLOUDY    49  47  91 CALM      30.14S
WAUSAU         CLOUDY    52  41  66 N3        30.14R
MOSINEE        CLOUDY    52  45  76 N5        30.15R
MARSHFIELD     CLOUDY    51  45  79 NE3       30.13R
WISC RAPIDS    LGT RAIN  52  47  83 NE3       30.15R
STEVENS POINT  CLOUDY    49  46  87 CALM      30.15R
WAUPACA        CLOUDY    54  48  81 N5        30.14S
SHAWANO        CLOUDY    53  44  71 CALM      30.14R
CLINTONVILLE   CLOUDY    52  43  71 N3        30.14R
WAUTOMA        NOT AVBL
$$

WIZ038-039-048-051-241200-
FOX VALLEY

CITY           SKY/WX    TMP DP  RH WIND       PRES   REMARKS
NWS GREEN BAY  CLOUDY    52  46  80 N5        30.13R
APPLETON       MOCLDY    52  41  66 N6        30.12R
OSHKOSH        NOT AVBL
FOND DU LAC    CLOUDY    59  46  62 NE12      30.11S
$$

WIZ022-050-052-241200-
EAST CENTRAL WISCONSIN

CITY           SKY/WX    TMP DP  RH WIND       PRES   REMARKS
EPHRAIM        FAIR      56  46  69 N8        30.11S
WASHINGTON ISL FAIR      53  47  80 N7        30.11R
STURGEON BAY   NOT AVBL
MANITOWOC      CLOUDY    55  47  74 N5        30.11S
SHEBOYGAN      CLOUDY    56  52  86 N8        30.10R
$$

LMZ563-521-522-541>543-241200-
LAKESHORE

STATION/POSITION TIME  TEMP    WIND        PRES    VSBY  WAVE
                       AIR SEA DIR/SP/G                  HT/PER
                 (UTC) (F)     (DEG/KT/KT) (MB)    (MI)  (FT/S)
SHEBOYGAN LKSHOR 1100   62      30/ 14/ 16 1018.9R
KEWAUNEE LKSHORE 1042   56     360/  5/  7 1018.6R
NORTHPORT PIER   1040   59     350/ 13/ 16 1019.6R
N MID LAKE BUOY  1050   58 65  350/ 14/ 17 1019.7R         2/ 4
S GREEN BAY BUOY 1100   58 69  360/ 14/ 16 1019.8
SISTER BAY LKSHO 1018   57     350/  9/ 10   N/A
MENOMINEE LKSHOR 1042   54     350/ 13/ 17 1019.5R
$$




USA.gov is the U.S. government's official web portal to all federal, state and local government web resources and services.